Regional Weather Roundup
Issued by NWS

Home | Current Version | Previous Version | Graphics & Text | Print | Product List | Glossary On
Versions: 1 2 3 4 5 6 7 8 9 10 11 12 13 14 15 16 17 18 19 20 21 22 23 24 25 26 27 28 29 30 31 32 33 34 35 36 37 38 39 40 41 42 43 44 45 46 47 48 49 50
000
ASUS44 KMEG 132200
RWRTN
TENNESSEE HOURLY STATE WEATHER ROUNDUP
NATIONAL WEATHER SERVICE MEMPHIS TN
400 PM CST WED DEC 13 2017

TNZ002-004-019-021-049-052-054-088>092-132300-
WEST TENNESSEE

CITY           SKY/WX    TMP DP  RH WIND       PRES   REMARKS
MEMPHIS INTL   PTCLDY    58  24  27 SW12G24   29.80R
NWS MEMPHIS      N/A     56 N/A N/A MISG        N/A
JACKSON        CLOUDY    55  25  31 SW13      29.77R
DYERSBURG      CLOUDY    54  26  34 SW14G22   29.75F
$$

TNZ008-025-027-028-033-062-065-066-132300-
NORTH MIDDLE TENNESSEE

CITY           SKY/WX    TMP DP  RH WIND       PRES   REMARKS
NASHVILLE      MOCLDY    50  16  25 SW12G25   29.72R
CLARKSVILLE    CLEAR     51  17  26 SW12      29.69S
SMYRNA         CLOUDY    49  18  29 SW9G20    29.74R
CROSSVILLE     CLEAR     39  11  31 S15G22    29.70F WCI  31
$$

TNZ061-075-076-078-094-096-097-132300-
SOUTH MIDDLE TENNESSEE

CITY           SKY/WX    TMP DP  RH WIND       PRES   REMARKS
WINCHESTER       N/A     46  16  29 S12       29.78F
$$

TNZ017-018-042-046-047-132300-
NORTHEAST TENNESSEE

CITY           SKY/WX    TMP DP  RH WIND       PRES   REMARKS
TRI CITIES     MOCLDY    41  12  30 W10       29.71F
$$

TNZ012-013-036-069-073-074-132300-
CENTRAL EAST TENNESSEE

CITY           SKY/WX    TMP DP  RH WIND       PRES   REMARKS
KNOXVILLE      PTCLDY    44  11  26 SW23G31   29.74F
OAK RIDGE      PTCLDY    43  11  27 SW10G20   29.75F
$$

TNZ083-085-099-132300-
SOUTHEAST TENNESSEE

CITY           SKY/WX    TMP DP  RH WIND       PRES   REMARKS
CHATTANOOGA    PTCLDY    46  14  27 S10       29.83F
$$

SKY/WX REPORTED AS FAIR MEANS FEW OR NO CLOUDS BELOW
12 THOUSAND FEET.





USA.gov is the U.S. government's official web portal to all federal, state and local government web resources and services.